Погода в Алтухово

Россия / Брянская область     52°40′27″N   34°22′06″E
темп.,
°C
ветер,
м/с
пор.,
м/с
влажн.,
%
обл.,
%
осадки,
мм/ч
давл.,
гПа
погр.,
м
23 апреля, пт
пт2300:00+8ю413855 0.6 1015383
03:00+7ю4138899 0.8 1015363
06:00+7ю4138834 0.1 1014405
09:00+10ююз5982100 0.5 1014752
12:00+6зсз6894100 4.1 1015469
15:00+8зсз3576100 8.2 1015971
18:00+9з2465100 0.0 1013722
21:00+6з2274100 0.1 101433
24 апреля, сб
сб2400:00+6зюз2477100 0.1 101399
03:00+3зюз368812 0.2 1012161
06:00+1зюз38915 0.0 1012232
09:00+5з57695 0.1 1011995
12:00+6зюз7952100 0.9 10112148
15:00+5зсз81069100 2.4 10121606
18:00+4зсз712715 0.7 10141459
21:00+2з512805 0.7 1015629
25 апреля, вс
вс2500:00+1зюз513844 0.0 1016473
03:000зюз411855 0.0 1016343
06:00−1юз411865 0.0 1016354
09:00+5юз466393 0.0 1015701
12:00+6юз6960100 0.1 10131548
15:00+5з696981 1.2 10141396
18:00+6з595728 0.6 10141702
21:00+1зюз398119 0.6 1015230
26 апреля, пн
пн2600:00−1юз38885 0.0 1016182
03:00−1юз38895 0.0 1016193
06:00−1юз26905 0.0 1015179
09:00+5зюз34645 0.0 1015713
12:00+7зюз3452100 1.1 10131497
15:00+8зюз355196 2.6 10121653
18:00+6з3570100 1.3 1011712
21:00+2з2287100 2.7 101148
27 апреля, вт
вт2700:00+1зюз2590100 0.1 1011121
03:000зюз389095 0.1 1011211
06:00−1зюз399427 0.0 1011308
09:00+4з577570 0.0 10111011
12:00+6зюз6858100 1.0 10111782
15:00+6зюз566260 2.2 10111328
18:00+6з586564 0.7 10111186
21:00+2зюз310865 0.8 1012287